Flag for U.S.A. Weather past 2 weeks in San Antonio, Texas, U.S.A.

Now
101 °F

Passing clouds.


Feels Like: 102 °F
Forecast: 78 / 97 °F
Wind: 17 mph from South

Location: San Antonio International Airport

Current Time: Aug 21, 2014 at 7:01:53 PM

Latest Report: Aug 21, 2014 at 5:51 PM


Visibility: 10 mi

Pressure: 29.89 "Hg

Humidity: 27%

Dew point: 61 °F

Location of San AntonioLocation

Historic Weather in San Antonio — Graph

°F

San Antonio temperature yesterday

Maximum temperature yesterday: 99 °F (at 3:51 PM)
Minimum temperature yesterday: 79 °F (at 5:51 AM)
Average temperature yesterday: 88 °F

Past Weeks' High & Low Weather Summary

 TemperatureHumidityPressure
High102 °F (Aug 16, 4:51 PM)91% (Aug 13, 5:51 AM)30.06 "Hg (Aug 13, 5:51 AM)
Low71 °F (Aug 14, 5:51 AM)19% (Aug 14, 5:51 PM)29.75 "Hg (Aug 19, 5:51 PM)
Average87 °F56%29.91 "Hg
* Reported Aug 6 5:51 PM — Aug 21 5:51 PM, San Antonio, Weather by CustomWeather, © 2014

Note: Actual official high and low records may vary slightly from our data, if they occured in-between our weather recording intervals... More about our weather records

Advertising

San Antonio weather history for previous 24 hours

 ConditionsComfort  
Time TempWeatherWind HumidityBarometerVisibility
5:51 PM
Aug 21
101 °FPassing clouds.17 mph27%29.89 "Hg10 mi
4:51 PM102 °FPassing clouds.16 mph27%29.89 "Hg10 mi
3:51 PM101 °FPassing clouds.18 mph28%29.92 "Hg10 mi
2:51 PM99 °FPassing clouds.16 mph31%29.94 "Hg10 mi
1:51 PM98 °FPassing clouds.18 mph32%29.96 "Hg10 mi
12:51 PM95 °FPassing clouds.20 mph39%29.98 "Hg10 mi
11:51 AM93 °FPassing clouds.15 mph46%30.00 "Hg10 mi
10:51 AM89 °FPassing clouds.20 mph53%30.01 "Hg10 mi
9:51 AM85 °FScattered clouds.13 mph65%30.00 "Hg10 mi
8:58 AM83 °FBroken clouds.13 mph72%30.06 "Hg10 mi
7:51 AM81 °FPassing clouds.10 mph77%29.99 "Hg10 mi
6:51 AM81 °FPartly cloudy.12 mph79%29.97 "Hg10 mi
5:51 AM82 °FPassing clouds.16 mph77%29.95 "Hg10 mi
4:51 AM83 °FMostly cloudy.16 mph74%29.94 "Hg10 mi
3:51 AM83 °FMostly cloudy.15 mph74%29.93 "Hg10 mi
2:51 AM82 °FPassing clouds.14 mph79%29.93 "Hg10 mi
1:51 AM82 °FMostly cloudy.16 mph77%29.95 "Hg10 mi
12:51 AM82 °FPassing clouds.15 mph72%29.96 "Hg10 mi
11:51 PM
Aug 20
83 °FPassing clouds.14 mph68%29.93 "Hg10 mi
10:51 PM85 °FPassing clouds.21 mph61%29.92 "Hg10 mi
9:51 PM87 °FPassing clouds.18 mph57%29.91 "Hg10 mi
8:51 PM90 °FPassing clouds.21 mph52%29.88 "Hg10 mi
7:51 PM92 °FScattered clouds.22 mph46%29.84 "Hg10 mi
Weather by CustomWeather, © 2014

See weather overviewHow to use our weather pages